Time,TemperatureF,DewpointF,PressureIn,WindDirection,WindDirectionDegrees,WindSpeedMPH,WindSpeedGustMPH,Humidity,HourlyPrecipIn,Conditions,Clouds,dailyrainin,SoftwareType,DateUTC
2013-07-29 00:05:00,75.7,74.2,29.94,SW,225,0.0,-999.0,95,-99.99,,,0.00,Acu-Link.com,2013-07-29 05:05:00,
2013-07-29 00:21:00,75.6,74.0,29.94,ENE,67,0.0,-999.0,95,-99.99,,,0.00,Acu-Link.com,2013-07-29 05:21:00,
2013-07-29 00:36:00,75.4,73.8,29.93,North,0,1.6,-999.0,95,-99.99,,,0.00,Acu-Link.com,2013-07-29 05:36:00,
2013-07-29 00:51:00,75.2,74.0,29.93,NNE,22,0.0,-999.0,96,-99.99,,,0.00,Acu-Link.com,2013-07-29 05:51:00,
2013-07-29 01:07:00,75.2,74.0,29.93,ENE,67,0.0,-999.0,96,-99.99,,,0.00,Acu-Link.com,2013-07-29 06:07:00,
2013-07-29 01:22:00,75.0,73.8,29.93,SSE,157,0.0,-999.0,96,-99.99,,,0.00,Acu-Link.com,2013-07-29 06:22:00,
2013-07-29 01:37:00,74.8,73.6,29.93,SSE,157,0.0,-999.0,96,-99.99,,,0.00,Acu-Link.com,2013-07-29 06:37:00,
2013-07-29 01:53:00,74.8,73.9,29.93,SSW,202,0.0,-999.0,97,-99.99,,,0.00,Acu-Link.com,2013-07-29 06:53:00,
2013-07-29 02:08:00,74.7,73.7,29.94,SSW,202,0.0,-999.0,97,-99.99,,,0.00,Acu-Link.com,2013-07-29 07:08:00,
2013-07-29 02:23:00,74.5,73.6,29.93,SW,225,0.0,-999.0,97,-99.99,,,0.00,Acu-Link.com,2013-07-29 07:23:00,
2013-07-29 02:38:00,74.5,73.6,29.94,SSW,202,1.6,-999.0,97,-99.99,,,0.00,Acu-Link.com,2013-07-29 07:38:00,
2013-07-29 02:53:00,74.5,73.6,29.93,South,180,1.1,-999.0,97,-99.99,,,0.00,Acu-Link.com,2013-07-29 07:53:00,
2013-07-29 03:09:00,74.3,73.4,29.93,SSW,202,0.0,-999.0,97,-99.99,,,0.00,Acu-Link.com,2013-07-29 08:09:00,
2013-07-29 03:24:00,74.3,73.4,29.93,East,90,0.0,-999.0,97,-99.99,,,0.00,Acu-Link.com,2013-07-29 08:24:00,
2013-07-29 03:39:00,74.3,73.4,29.93,East,90,0.0,-999.0,97,-99.99,,,0.00,Acu-Link.com,2013-07-29 08:39:00,
2013-07-29 03:54:00,74.1,73.5,29.93,ENE,67,0.0,-999.0,98,-99.99,,,0.00,Acu-Link.com,2013-07-29 08:54:00,
2013-07-29 04:10:00,74.1,73.5,29.93,ENE,67,0.0,-999.0,98,-99.99,,,0.00,Acu-Link.com,2013-07-29 09:10:00,
2013-07-29 04:25:00,73.9,73.3,29.93,NE,45,0.0,-999.0,98,-99.99,,,0.00,Acu-Link.com,2013-07-29 09:25:00,
2013-07-29 04:40:00,73.9,73.3,29.94,WSW,247,0.0,-999.0,98,-99.99,,,0.00,Acu-Link.com,2013-07-29 09:40:00,
2013-07-29 04:55:00,73.9,73.3,29.95,WSW,247,0.0,-999.0,98,-99.99,,,0.00,Acu-Link.com,2013-07-29 09:55:00,
2013-07-29 05:11:00,73.9,73.3,29.94,SSW,202,0.0,-999.0,98,-99.99,,,0.00,Acu-Link.com,2013-07-29 10:11:00,
2013-07-29 05:26:00,73.8,73.2,29.95,NE,45,0.0,-999.0,98,-99.99,,,0.00,Acu-Link.com,2013-07-29 10:26:00,
2013-07-29 05:41:00,73.8,73.2,29.95,NNE,22,0.0,-999.0,98,-99.99,,,0.00,Acu-Link.com,2013-07-29 10:41:00,
2013-07-29 06:12:00,73.4,73.1,29.95,North,0,0.0,-999.0,99,-99.99,,,0.00,Acu-Link.com,2013-07-29 11:12:00,
2013-07-29 06:27:00,73.4,73.1,29.97,NNW,337,0.0,-999.0,99,-99.99,,,0.00,Acu-Link.com,2013-07-29 11:27:00,
2013-07-29 06:42:00,73.4,73.1,29.97,SW,225,0.0,-999.0,99,-99.99,,,0.00,Acu-Link.com,2013-07-29 11:42:00,
2013-07-29 06:58:00,73.8,73.5,29.97,SSW,202,0.0,-999.0,99,-99.99,,,0.00,Acu-Link.com,2013-07-29 11:58:00,
2013-07-29 07:13:00,74.3,74.0,29.98,SSE,157,0.0,-999.0,99,-99.99,,,0.00,Acu-Link.com,2013-07-29 12:13:00,
2013-07-29 07:28:00,74.7,74.4,29.98,NE,45,0.0,-999.0,99,-99.99,,,0.00,Acu-Link.com,2013-07-29 12:28:00,
2013-07-29 07:44:00,75.4,75.1,29.99,ENE,67,0.0,-999.0,99,-99.99,,,0.00,Acu-Link.com,2013-07-29 12:44:00,
2013-07-29 07:59:00,76.8,76.5,29.99,SSE,157,0.0,-999.0,99,-99.99,,,0.00,Acu-Link.com,2013-07-29 12:59:00,
2013-07-29 08:14:00,77.9,77.0,30.00,SSE,157,0.0,-999.0,97,-99.99,,,0.00,Acu-Link.com,2013-07-29 13:14:00,
2013-07-29 08:29:00,79.5,77.6,30.00,South,180,1.1,-999.0,94,-99.99,,,0.00,Acu-Link.com,2013-07-29 13:29:00,
2013-07-29 08:44:00,83.3,79.4,30.01,SW,225,2.2,-999.0,88,-99.99,,,0.00,Acu-Link.com,2013-07-29 13:44:00,
2013-07-29 09:00:00,86.4,80.2,30.01,West,270,2.7,-999.0,82,-99.99,,,0.00,Acu-Link.com,2013-07-29 14:00:00,
2013-07-29 09:15:00,88.3,80.2,30.01,SSE,157,1.6,-999.0,77,-99.99,,,0.00,Acu-Link.com,2013-07-29 14:15:00,
2013-07-29 09:30:00,90.7,79.1,30.02,South,180,4.7,-999.0,69,-99.99,,,0.00,Acu-Link.com,2013-07-29 14:30:00,
2013-07-29 09:46:00,90.0,79.3,30.01,West,270,3.8,-999.0,71,-99.99,,,0.00,Acu-Link.com,2013-07-29 14:46:00,
2013-07-29 10:01:00,93.2,79.2,30.02,WNW,292,4.7,-999.0,64,-99.99,,,0.00,Acu-Link.com,2013-07-29 15:01:00,
2013-07-29 10:47:00,95.7,77.5,30.02,ESE,112,3.1,-999.0,56,-99.99,,,0.00,Acu-Link.com,2013-07-29 15:47:00,
2013-07-29 11:02:00,94.8,78.7,30.02,NNW,337,2.2,-999.0,60,-99.99,,,0.00,Acu-Link.com,2013-07-29 16:02:00,
2013-07-29 11:17:00,96.3,78.0,30.01,South,180,2.7,-999.0,56,-99.99,,,0.00,Acu-Link.com,2013-07-29 16:17:00,
2013-07-29 11:32:00,97.3,77.9,30.01,SSE,157,2.7,-999.0,54,-99.99,,,0.00,Acu-Link.com,2013-07-29 16:32:00,
2013-07-29 11:48:00,99.7,78.3,30.01,NNW,337,5.8,-999.0,51,-99.99,,,0.00,Acu-Link.com,2013-07-29 16:48:00,
2013-07-29 12:03:00,96.8,79.0,30.01,West,270,5.8,-999.0,57,-99.99,,,0.00,Acu-Link.com,2013-07-29 17:03:00,
2013-07-29 12:18:00,98.4,77.7,30.01,SSW,202,1.6,-999.0,52,-99.99,,,0.00,Acu-Link.com,2013-07-29 17:18:00,
2013-07-29 12:33:00,99.7,74.5,30.01,SSW,202,2.7,-999.0,45,-99.99,,,0.00,Acu-Link.com,2013-07-29 17:33:00,
2013-07-29 12:48:00,101.8,74.4,30.01,WNW,292,2.7,-999.0,42,-99.99,,,0.00,Acu-Link.com,2013-07-29 17:48:00,
2013-07-29 13:04:00,99.5,75.6,30.00,SSW,202,3.1,-999.0,47,-99.99,,,0.00,Acu-Link.com,2013-07-29 18:04:00,
2013-07-29 13:19:00,100.4,74.5,30.00,South,180,5.1,-999.0,44,-99.99,,,0.00,Acu-Link.com,2013-07-29 18:19:00,
2013-07-29 13:34:00,101.5,76.8,30.00,ESE,112,3.8,-999.0,46,-99.99,,,0.00,Acu-Link.com,2013-07-29 18:34:00,
2013-07-29 13:49:00,100.2,75.0,30.00,SSE,157,2.7,-999.0,45,-99.99,,,0.00,Acu-Link.com,2013-07-29 18:49:00,
2013-07-29 14:05:00,99.9,75.3,30.00,SSE,157,1.6,-999.0,46,-99.99,,,0.00,Acu-Link.com,2013-07-29 19:05:00,
2013-07-29 14:20:00,99.5,76.3,29.99,East,90,2.2,-999.0,48,-99.99,,,0.00,Acu-Link.com,2013-07-29 19:20:00,
2013-07-29 14:35:00,100.2,73.6,29.99,West,270,1.6,-999.0,43,-99.99,,,0.00,Acu-Link.com,2013-07-29 19:35:00,
2013-07-29 14:50:00,100.8,72.0,29.98,SSE,157,1.6,-999.0,40,-99.99,,,0.00,Acu-Link.com,2013-07-29 19:50:00,
2013-07-29 15:06:00,99.1,73.3,29.98,WSW,247,4.7,-999.0,44,-99.99,,,0.00,Acu-Link.com,2013-07-29 20:06:00,
2013-07-29 15:21:00,99.5,72.3,29.98,South,180,4.7,-999.0,42,-99.99,,,0.00,Acu-Link.com,2013-07-29 20:21:00,
2013-07-29 15:36:00,103.5,72.0,29.98,SW,225,4.7,-999.0,37,-99.99,,,0.00,Acu-Link.com,2013-07-29 20:36:00,
2013-07-29 15:51:00,100.8,73.4,29.97,West,270,6.3,-999.0,42,-99.99,,,0.00,Acu-Link.com,2013-07-29 20:51:00,
2013-07-29 16:07:00,99.7,73.1,29.96,West,270,7.4,-999.0,43,-99.99,,,0.00,Acu-Link.com,2013-07-29 21:07:00,
2013-07-29 16:22:00,97.9,72.9,29.97,SW,225,3.8,-999.0,45,-99.99,,,0.00,Acu-Link.com,2013-07-29 21:22:00,
2013-07-29 16:37:00,96.3,73.9,29.97,SSW,202,5.8,-999.0,49,-99.99,,,0.00,Acu-Link.com,2013-07-29 21:37:00,
2013-07-29 16:53:00,97.2,72.9,29.97,SSW,202,3.8,-999.0,46,-99.99,,,0.00,Acu-Link.com,2013-07-29 21:53:00,
2013-07-29 17:08:00,100.0,70.6,29.97,SSE,157,3.8,-999.0,39,-99.99,,,0.00,Acu-Link.com,2013-07-29 22:08:00,
2013-07-29 17:23:00,96.1,72.5,29.98,South,180,3.8,-999.0,47,-99.99,,,0.00,Acu-Link.com,2013-07-29 22:23:00,
2013-07-29 17:38:00,96.4,71.6,29.97,SSE,157,6.3,-999.0,45,-99.99,,,0.00,Acu-Link.com,2013-07-29 22:38:00,
2013-07-29 17:54:00,96.3,71.4,29.97,SE,135,4.7,-999.0,45,-99.99,,,0.00,Acu-Link.com,2013-07-29 22:54:00,
2013-07-29 18:09:00,94.8,70.8,29.96,SSW,202,5.8,-999.0,46,-99.99,,,0.00,Acu-Link.com,2013-07-29 23:09:00,
2013-07-29 18:24:00,95.5,72.7,29.96,South,180,2.7,-999.0,48,-99.99,,,0.00,Acu-Link.com,2013-07-29 23:24:00,
2013-07-29 18:39:00,95.5,73.3,29.97,SSW,202,3.1,-999.0,49,-99.99,,,0.00,Acu-Link.com,2013-07-29 23:39:00,
2013-07-29 18:55:00,93.2,73.5,29.97,South,180,5.1,-999.0,53,-99.99,,,0.00,Acu-Link.com,2013-07-29 23:55:00,
2013-07-29 19:10:00,92.3,73.8,29.97,SW,225,5.1,-999.0,55,-99.99,,,0.00,Acu-Link.com,2013-07-30 00:10:00,
2013-07-29 19:25:00,89.2,74.0,29.97,South,180,3.8,-999.0,61,-99.99,,,0.00,Acu-Link.com,2013-07-30 00:25:00,
2013-07-29 19:40:00,87.3,74.0,29.98,SSW,202,3.8,-999.0,65,-99.99,,,0.00,Acu-Link.com,2013-07-30 00:40:00,
2013-07-29 19:56:00,84.9,73.2,29.97,SSW,202,3.8,-999.0,68,-99.99,,,0.00,Acu-Link.com,2013-07-30 00:56:00,
2013-07-29 20:11:00,83.5,73.1,29.97,SSW,202,2.7,-999.0,71,-99.99,,,0.00,Acu-Link.com,2013-07-30 01:11:00,
2013-07-29 20:26:00,82.0,72.9,29.98,SSE,157,3.8,-999.0,74,-99.99,,,0.00,Acu-Link.com,2013-07-30 01:26:00,
2013-07-29 20:41:00,81.1,73.2,29.97,WSW,247,3.1,-999.0,77,-99.99,,,0.00,Acu-Link.com,2013-07-30 01:41:00,
2013-07-29 20:57:00,80.2,73.1,29.98,SSW,202,2.2,-999.0,79,-99.99,,,0.00,Acu-Link.com,2013-07-30 01:57:00,
2013-07-29 21:12:00,79.5,73.5,29.98,SSE,157,3.8,-999.0,82,-99.99,,,0.00,Acu-Link.com,2013-07-30 02:12:00,
2013-07-29 21:27:00,79.3,73.7,29.99,SSW,202,4.3,-999.0,83,-99.99,,,0.00,Acu-Link.com,2013-07-30 02:27:00,
2013-07-29 21:42:00,79.2,73.9,30.00,SSW,202,3.8,-999.0,84,-99.99,,,0.00,Acu-Link.com,2013-07-30 02:42:00,
2013-07-29 21:58:00,78.6,74.1,30.00,South,180,5.1,-999.0,86,-99.99,,,0.00,Acu-Link.com,2013-07-30 02:58:00,
2013-07-29 22:13:00,78.3,74.1,30.00,SW,225,2.2,-999.0,87,-99.99,,,0.00,Acu-Link.com,2013-07-30 03:13:00,
2013-07-29 22:28:00,77.5,74.0,30.01,SSE,157,2.2,-999.0,89,-99.99,,,0.00,Acu-Link.com,2013-07-30 03:28:00,
2013-07-29 22:44:00,77.0,73.8,30.02,South,180,1.6,-999.0,90,-99.99,,,0.00,Acu-Link.com,2013-07-30 03:44:00,
2013-07-29 22:59:00,76.5,74.0,30.02,South,180,1.6,-999.0,92,-99.99,,,0.00,Acu-Link.com,2013-07-30 03:59:00,
2013-07-29 23:14:00,75.9,73.4,30.03,SW,225,0.0,-999.0,92,-99.99,,,0.00,Acu-Link.com,2013-07-30 04:14:00,
2013-07-29 23:29:00,75.6,73.7,30.02,SW,225,2.2,-999.0,94,-99.99,,,0.00,Acu-Link.com,2013-07-30 04:29:00,
2013-07-29 23:44:00,75.4,73.5,30.03,SW,225,2.7,-999.0,94,-99.99,,,0.00,Acu-Link.com,2013-07-30 04:44:00,